Regional Weather Roundup
Issued by NWS Charleston, SC

Home | Current Version | Previous Version | Text Only | Print | Product List | Glossary On
Versions: 1 2 3 4 5 6 7 8 9 10 11 12 13 14 15 16 17 18 19 20 21 22 23 24 25 26 27 28 29 30 31 32 33 34 35 36 37 38 39 40 41 42 43 44 45 46 47 48 49 50
000
ASUS42 KCHS 230712
RWRCHS

REGIONAL WEATHER ROUNDUP
NATIONAL WEATHER SERVICE CHARLESTON SC
200 AM EST MON JAN 23 2017

NOTE: "FAIR" INDICATES FEW OR NO CLOUDS BELOW 12,000 FEET WITH NO
SIGNIFICANT WEATHER AND/OR OBSTRUCTIONS TO VISIBILITY.

NOT ALL STATIONS ARE QUALITY CONTROLLED. USE DATA WITH CAUTION...
ESPECIALLY DEWPOINT OBSERVATIONS.

SCZ027-030-031-034>040-042>050-230800-
...SOUTHEAST SOUTH CAROLINA...

CITY           SKY/WX    TMP DP  RH WIND       PRES   REMARKS
N CHARLESTON   CLEAR     57  49  74 W14G22    29.34R
WATERFRONT PRK   N/A     58  52  80 W7        29.33R
MOUNT PLEASANT FAIR      57  52  82 SW9G17    29.34R
JOHNS ISLAND   FAIR      57  52  82 W13       29.35R
PINOPOLIS        N/A     57  52  82 SW18      29.22R
MONCKS CORNER  FAIR      55  46  71 SW12G21   29.33R
SUMMERVILLE    FAIR      55  52  88 SW7       29.33R
BEAUFORT MCAS  CLOUDY    55  49  80 SW8       29.35F
BEAUFORT ARPT  FAIR      55  50  82 W8        29.35F
HILTON HEAD IS PTCLDY    57  52  82 SW7       29.37F
WALTERBORO     SUNNY     54  50  87 W10       29.34S
ALLENDALE      FAIR      54  50  87 CALM      29.31F

...SOUTHERN MIDLANDS AND PEE DEE...

CITY           SKY/WX    TMP DP  RH WIND       PRES   REMARKS
GEORGETOWN     FAIR      61  55  82 SW14      29.29R
KINGSTREE      PTSUNNY   61  55  82 SW14G23   29.27R
ORANGEBURG     PTCLDY    54  48  80 SW16      29.30R
BARNWELL       FAIR      55  50  82 SW8       29.31S
AIKEN          FAIR      50  46  87 SW10      29.32S
MANNING        PTSUNNY   55  43  62 SW9G21    29.30R
COLUMBIA       PTCLDY    55  49  80 SW12G21   29.26R
SUMTER         PTCLDY    55  50  82 SW18G32   29.24R
FLORENCE       MOCLDY    62  61  96 S9        29.23F
MYRTLE BEACH   PTCLDY    64  61  88 SW12G21   29.27S
N MYRTLE BEACH MOCLDY    62  61  96 SW20G28   29.24F

$$

GAZ063-065-086>088-099>101-113>116-118-119-134>141-150-230800-
...SOUTHEAST GEORGIA...

CITY           SKY/WX    TMP DP  RH WIND       PRES   REMARKS
SAVANNAH ARPT  PTCLDY    55  48  77 SW7       29.36F
HUNTER AAF     CLEAR     54  53  96 S3        29.34F
FORT STEWART   CLEAR     55  48  79 CALM      29.33F
STATESBORO     CLOUDY    55  51  87 SW7       29.33F
SYLVANIA       MOSUNNY  N/A N/A N/A SW3       29.34F
CLAXTON        FAIR     N/A N/A N/A CALM      29.35F

...CSRA...CENTRAL AND FAR SOUTHEAST GEORGIA...

CITY           SKY/WX    TMP DP  RH WIND       PRES   REMARKS
THOMSON        PTCLDY    53  51  91 SW6       29.33F
AUGUSTA-BUSH   MOCLDY    54  48  80 S5        29.30S
AUGUSTA-DANIEL PTCLDY    53  46  77 SW7       29.30S
SWAINSBORO     FAIR      52  50  93 S5        29.34S
VIDALIA        CLOUDY    54  52  94 SW8       29.34F
EASTMAN        FAIR      54  42  64 SW6       29.38R
HAZLEHURST     LGT RAIN  56  54  92 SW8G20    29.36R
ALMA           PTCLDY    55  50  83 SW6       29.37F
WAYCROSS       CLEAR     55  55 100 SW5       29.39S
JESUP          FAIR      55  50  82 SW7       29.37F
BAXLEY         FAIR      55  55 100 SW3       29.37S
BRUNSWICK      CLEAR     59  52  77 SW13      29.40S
SAINT SIMONS   CLEAR     58  49  72 SW13      29.39S

$$

SCZ027-028-034-036>038-045-046-048>050-GAZ119-141-230800-
...LAKE AND SUPPLEMENTAL COASTAL OBSERVATIONS...

STATION/POSITION TIME  TEMP    WIND        PRES    WAVE   SWELL
                       AIR SEA DIR/SP/G            HT/PER HT/PER/DIR
                 (UTC) (F)     (DEG/KT/KT) (MB)    (FT/S) (FT/S/D)
WINYAH BAY       0545   63     210/  7      990.0
LAKE MURRAY      0620   56     250/ 13/ 23  989.5
ACE BASIN NERRS  0545   58     250/  5      993.0
FORT PULASKI     0642   56 59  250/  5/  9  994.6F
SAPELO ISLAND    0600   58     220/  9      995.0

$$

ANZ835-935-AMZ111-154-330-350-352-354-370-450-454-472-230800-
...C-MAN AND BUOY OBSERVATIONS...

STATION/POSITION TIME  TEMP    WIND        PRES    WAVE   SWELL
                       AIR SEA DIR/SP/G            HT/PER HT/PER/DIR
                 (UTC) (F)     (DEG/KT/KT) (MB)    (FT/S) (FT/S/D)
BUOY 41004       0550   67 65  240/ 29/ 37  991.5    7/ 6   3/180/ 9
BUOY 41008       0550   61 60  230/ 16/ 17  995.0    5/ 7   2/250/13
FOLLY BEACH CMAN 0600   58     240/ 10/ 13  993.7R
CAPERS NEARSHORE 0608   59 56  250/ 23/ 29  992.1R
FRIPP NEARSHORE  0608   60 58  260/ 17/ 23  993.9R


STATION/POSITION TIME  TEMP    WIND        PRES    WAVE   SWELL
                       AIR SEA DIR/SP/G            HT/PER HT/PER/DIR
                 (UTC) (F)     (DEG/KT/KT) (MB)    (FT/S) (FT/S/D)
5E ST. MARYS GA  0630      62                N/A     4/ 6   2/110/13
FRYING PAN BUOY  0650   71 67  220/ 25/ 35  991.4R  10/ 8   2/140/12
BUOY 41025       0650   67 71  160/ 17/ 23  996.7F   5/14   3/ 70/14
CAPE LOOKOUT NC  0600   61      50/ 16/ 19  995.4F
BUOY 41002       0650   74 71  190/ 25/ 33  998.4F  11/ 8   5/ 90/11
BUOY 41010       NOT AVBL
ST AUGUSTINE FL  0700   61 65  290/  5/  7  998.1F


$$




USA.gov is the U.S. government's official web portal to all federal, state and local government web resources and services.